{"data":{"norad_id":67802,"intl_designator":"2026-032F","name":"STARLINK-36739","alt_names":[],"object_type":"PAYLOAD","status":"ACTIVE","operator":null,"country":"US","launch_date":"2026-02-15","launch_site_code":"AFWTR","launch_vehicle":null,"mission":null,"orbit_class":"UNKNOWN","rcs_meters":null,"size_class":null,"mass_kg":null,"dimensions":null,"purposes":["comms"],"wikipedia_slug":null,"has_3d_model":false,"image_url":null,"decayed_at":null,"tle_current":{"epoch":"2026-09-18T23:50:44.073888Z","epoch_age_seconds":196553,"freshness":"STALE","line1":"1 67802U 26032F   26261.99356567  .00016992  00000+0  52725-3 0  9993","line2":"2 67802  97.2843  88.4116 0004021  91.2473 268.9230 15.33452220 34586","mean_motion":15.3345222,"eccentricity":0.0004021,"inclination_deg":97.2843,"raan_deg":88.4116,"arg_perigee_deg":91.2473,"mean_anomaly_deg":268.923,"bstar":0.00052725,"rev_number":3458,"period_min":93.905762515379,"perigee_km":462.76985776169,"apogee_km":468.27352808254,"semimajor_km":6843.6586929221,"source":"CELESTRAK","updated_at":"2026-09-20T09:00:43.662707Z"}}}